Home   Weather   Luxembourg   Past weeks
Flag for Luxembourg

Past Weather in Luxembourg, Luxembourg — Yesterday and Last 2 Weeks

Now
54 °F

Sunny.


Feels Like: 52 °F
Forecast: 77 / 51 °F
Wind: 7 mph from Northeast

Location: Luxembourg Airport

Current Time: Aug 21, 2019 at 7:57:05 am

Latest Report: Aug 21, 2019 at 7:20 am


Visibility: 10 mi

Pressure: 30.36 "Hg

Humidity: 82%

Dew Point: 48 °F

Location of LuxembourgLocation

Past Weather in Luxembourg — Graph

°F

Luxembourg Temperature Yesterday

Maximum temperature yesterday: 68 °F (at 3:50 pm)
Minimum temperature yesterday: 50 °F (at 5:20 am)
Average temperature yesterday: 59 °F

High & Low Weather Summary for the Past Weeks

 TemperatureHumidityPressure
High81 °F (Aug 9, 3:20 pm)100% (Aug 7, 4:20 am)30.36 "Hg (Aug 7, 4:20 am)
Low50 °F (Aug 20, 5:20 am)39% (Aug 8, 5:20 pm)29.74 "Hg (Aug 9, 4:50 pm)
Average63 °F75%29.99 "Hg
* Reported Aug 6 6:20 am — Aug 21 6:20 am, Luxembourg. Weather by CustomWeather, © 2019

Note: Actual official high and low records may vary slightly from our data, if they occured in-between our weather recording intervals... More about our weather records

Advertising

Luxembourg Weather History for the Previous 24 Hours

Scroll right to see more
 ConditionsComfort  
Time TempWeatherWind HumidityBarometerVisibility
6:20 am
Wed, Aug 21
52 °FClear.8 mph88%30.36 "Hg10 mi
5:50 am54 °FClear.6 mph77%30.36 "Hg10 mi
5:20 am54 °FClear.6 mph82%30.36 "Hg10 mi
4:50 am52 °FPassing clouds.3 mph88%30.36 "HgN/A
4:20 am54 °FCool.3 mph77%30.36 "HgN/A
3:50 am54 °FCool.5 mph82%30.36 "HgN/A
3:20 am52 °FCool.6 mph88%30.33 "HgN/A
2:50 am52 °FCool.7 mph88%30.33 "HgN/A
2:20 am54 °FCool.7 mph88%30.36 "HgN/A
1:50 am54 °FClear.8 mph88%30.33 "Hg10 mi
1:20 am54 °FClear.7 mph88%30.33 "Hg10 mi
12:50 am55 °FClear.7 mph82%30.36 "Hg10 mi
12:20 am54 °FClear.7 mph88%30.33 "Hg10 mi
11:50 pm
Tue, Aug 20
55 °FClear.6 mph82%30.33 "Hg10 mi
11:20 pm57 °FClear.6 mph77%30.33 "Hg10 mi
10:50 pm57 °FClear.5 mph82%30.33 "Hg10 mi
10:20 pm59 °FClear.5 mph72%30.33 "Hg10 mi
9:50 pm59 °FClear.6 mph77%30.33 "Hg10 mi
9:20 pm61 °FClear.6 mph68%30.30 "Hg10 mi
8:50 pm63 °FPassing clouds.6 mph64%30.30 "HgN/A
8:20 pm64 °FPassing clouds.5 mph64%30.30 "HgN/A
7:50 pm66 °FScattered clouds.7 mph56%30.30 "HgN/A
7:20 pm66 °FScattered clouds.13 mph52%30.27 "HgN/A
6:50 pm68 °FPassing clouds.8 mph49%30.27 "HgN/A
6:20 pm68 °FPassing clouds.10 mph53%30.27 "HgN/A
5:50 pm66 °FSunny.12 mph52%30.27 "Hg10 mi
5:20 pm66 °FSunny.13 mph49%30.27 "Hg10 mi
4:50 pm66 °FPassing clouds.10 mph52%30.27 "HgN/A
4:20 pm66 °FPassing clouds.7 mph49%30.27 "HgN/A
3:50 pm68 °FPassing clouds.7 mph49%30.27 "HgN/A
3:20 pm66 °FPassing clouds.7 mph52%30.24 "HgN/A
2:50 pm66 °FPassing clouds.9 mph49%30.24 "HgN/A
1:50 pm66 °FPassing clouds.5 mph52%30.24 "HgN/A
1:20 pm64 °FPassing clouds.6 mph52%30.24 "HgN/A
12:50 pm63 °FSunny.3 mph59%30.24 "Hg10 mi
12:20 pm63 °FSunny.2 mph59%30.24 "Hg10 mi
11:50 am61 °FPassing clouds.5 mph63%30.24 "HgN/A
11:20 am61 °FPassing clouds.5 mph68%30.24 "HgN/A
10:50 am61 °FPassing clouds.5 mph63%30.24 "HgN/A
10:20 am61 °FCool.6 mph63%30.21 "HgN/A
9:20 am59 °FPassing clouds.6 mph68%30.21 "HgN/A
8:50 am59 °FPassing clouds.3 mph77%30.21 "HgN/A
7:50 am54 °FPassing clouds.3 mph88%30.21 "HgN/A
7:20 am50 °FPassing clouds.5 mph94%30.18 "HgN/A
Weather by CustomWeather, © 2019

See weather overview